#timestamp,LO_Frequency,Hit 
1505361615.9,286047010.5,N
1505361635.7,286047010.7,N
1505361655.5,286047008.1,N
1505361675.4,286047008.6,N
1505361695.2,286047009.4,N
1505361715.0,286047006.1,N
1505361715.9,286047006.1,N
1505361735.8,286047007.1,N
1505361755.6,286047004.8,N
1505361775.4,286047005.3,N
1505361795.2,286047006.4,N
1505361815.1,286047008.8,N
1505361816.0,286047008.8,P
1505361835.8,286046999.9,N
1505361855.7,286047000.0,N
1505361875.5,286047001.5,N
1505361895.3,286047001.4,N
1505361915.1,286047004.0,N
1505361935.9,286047001.5,N
1505361955.7,286046999.7,N
1505361975.5,286047002.7,N
1505361995.4,286047004.1,N
1505362015.2,286047005.4,N
1505362035.0,286047003.5,N
1505362035.9,286047003.5,N
1505362055.8,286047000.3,N
1505362075.6,286047005.2,N
1505362095.4,286046999.8,N
1505362115.3,286047000.9,N
1505362135.1,286046996.7,N
1505362136.0,286046996.7,N
1505362155.8,286046993.8,N
1505362175.7,286046993.4,N
1505362195.5,286046999.3,N
1505362215.3,286046998.3,N
1505362235.2,286046998.2,N
1505362255.9,286046999.0,N
1505362275.7,286046998.2,N
1505362295.5,286046998.2,N
1505362315.4,286046998.4,N
1505362335.2,286046993.3,N
1505362355.0,286046993.4,N
1505362355.9,286046993.4,N
1505362375.8,286046993.7,N
1505362395.6,286046999.1,N
1505362415.4,286046997.1,N
1505362435.3,286047001.0,N
1505362455.1,286047000.5,N
1505362456.0,286047000.5,N
1505362475.8,286046998.5,N
1505362495.7,286047001.5,N
1505362515.5,286047002.4,N
1505362535.3,286047000.5,N
1505362555.2,286047001.6,N
1505362575.9,286047002.1,N
1505362595.7,286047001.4,N
1505362615.5,286047001.8,N
1505362635.4,286047002.8,N
1505362655.2,286047003.9,N
1505362675.0,286047003.5,N
1505362675.9,286047003.5,N
1505362695.8,286047002.2,N
1505362715.6,286047001.4,N
1505362735.4,286047004.0,N
1505362755.3,286047001.4,N
1505362775.1,286046997.3,N
1505362795.8,286046995.2,N
1505362815.7,286047003.6,N
1505362835.5,286047001.7,N
1505362855.3,286047000.5,N
1505362875.2,286047001.4,N
1505362895.9,286047003.6,N
1505362915.7,286047003.0,N
1505362935.6,286047004.8,N
1505362955.4,286047010.5,P
1505362975.2,286047005.5,N
1505362995.1,286047003.7,N
1505362996.0,286047003.7,N
1505363015.8,286047006.3,N
1505363035.6,286047012.4,P
1505363055.5,286047001.6,N
1505363075.3,286046997.3,N
1505363095.1,286046998.2,N
1505363115.9,286046994.2,N
1505363135.7,286046994.2,N
1505363155.5,286046997.0,N
1505363175.4,286046996.4,N
1505363195.2,286046992.9,N
1505363215.0,286046992.0,N
1505363215.9,286046992.0,N
1505363235.7,286046992.7,N
1505363255.6,286046991.0,N
1505363275.4,286046992.3,N
1505363295.2,286046996.0,N
1505363315.1,286046996.3,N
1505363316.0,286046996.3,N
1505363335.8,286047001.6,N
1505363355.6,286047004.6,N
1505363375.5,286047000.8,N
1505363395.3,286047000.4,N
1505363415.1,286047001.0,N
1505363435.9,286046997.5,N
1505363455.7,286046995.2,N
1505363475.5,286046996.8,N
1505363495.4,286046999.5,N
1505363515.2,286046995.0,N
1505363535.0,286046994.9,N
1505363535.9,286046994.9,N
1505363555.8,286046999.4,N
1505363575.6,286046997.8,N
1505363595.4,286046999.4,N
1505363615.2,286047004.8,N
1505363635.1,286047007.5,N
1505363636.0,286047007.5,N
1505363655.8,286047002.4,N
1505363675.6,286046997.4,N
1505363695.5,286046994.0,N
1505363715.3,286046993.0,N
1505363735.1,286046994.3,N
1505363755.9,286046993.5,N
1505363775.7,286046994.5,N
1505363795.5,286046992.5,N
1505363815.4,286046988.7,N
1505363835.2,286046991.3,N
1505363855.0,286046992.3,N
1505363855.9,286046992.3,N
1505363875.8,286046992.0,N
1505363895.6,286046993.8,N
1505363915.4,286046995.7,N
1505363935.3,286046993.5,N
1505363955.1,286046990.1,N
1505363956.0,286046990.1,N
1505363975.8,286046991.4,N
1505363995.7,286046988.7,N
1505364015.5,286046987.6,N
1505364035.3,286046987.3,N
1505364055.1,286046988.5,N
1505364075.9,286046990.1,N
1505364095.7,286046994.4,N
1505364115.5,286046995.0,N
1505364135.4,286046990.6,N
1505364155.2,286046989.7,N
1505364175.0,286046989.0,N
1505364175.9,286046989.0,N
1505364195.8,286046994.2,N
1505364215.6,286046997.5,N
1505364235.4,286046997.6,N
1505364255.3,286046994.0,N
1505364275.1,286046996.6,N
1505364276.0,286046996.6,N
1505364295.8,286046994.9,N
1505364315.7,286046991.7,N
1505364335.5,286046993.9,N
1505364355.3,286046999.5,N
1505364375.2,286046997.3,N
1505364395.9,286046997.1,N
1505364415.7,286046993.4,N
1505364435.5,286046992.6,N
1505364455.4,286046996.2,N
1505364475.2,286046990.7,N
1505364495.1,286046989.4,P
1505364496.0,286046989.4,P
1505364515.8,286046994.0,P
1505364535.6,286046992.1,P
1505364555.5,286047004.4,P
1505364575.3,286047003.4,N
1505364595.1,286047005.6,N
1505364615.9,286047003.0,N
1505364635.7,286047012.2,N
1505364655.5,286047009.9,N
1505364675.3,286047007.9,N
1505364695.2,286047007.9,N
1505364715.0,286047009.6,N
1505364715.9,286047009.6,N
1505364735.7,286047011.6,N
1505364755.6,286047011.6,N
1505364775.4,286047015.4,N
1505364795.2,286047014.5,N
1505364815.1,286047013.2,N
1505364816.0,286047013.2,N
1505364835.8,286047013.2,N
1505364855.6,286047009.4,N
1505364875.5,286047010.7,N
1505364895.3,286047006.1,N
1505364915.1,286047006.5,N
1505364935.9,286047008.1,N
1505364955.7,286047008.4,N
1505364975.5,286047010.1,N
1505364995.4,286047015.5,N
1505365015.2,286047015.4,N
1505365035.0,286047012.6,N
1505365035.9,286047012.6,N
1505365055.8,286047012.5,N
1505365075.6,286047016.3,P
1505365095.4,286047003.4,N
1505365115.3,286047003.2,N
1505365135.1,286047004.6,N
1505365136.0,286047004.6,N
1505365155.8,286047008.8,N
1505365175.7,286047006.1,N
1505365195.5,286047006.0,N
